SWA1057 KOAK-PHOG

Flight info

Callsign SWA1057
Flight time N/A
Altitude 38000
Route OAK6 OAK CINNY ALANN GITLE DIALO R576 DUSAC/N0446F400 R576 DENNS LNDHY1
Aircraft B738/M-SDE2E3FGHIRWXY/LB1

Departure

Time 2026-05-07 12:17
Airport San Francisco Bay Oakland International Airport (KOAK)

Arrival

Time N/A
Airport Kahului International Airport (PHOG)
Time Latitude Longitude Altitude Speed Heading
2026-05-07 11:40 37.71050 -122.21203 9 ft 0 kts 82°
2026-05-07 12:08 37.71050 -122.21209 17 ft 4 kts 82°
2026-05-07 12:09 37.71046 -122.21236 8 ft 3 kts 80°
2026-05-07 12:09 37.71041 -122.21269 10 ft 4 kts 78°
2026-05-07 12:09 37.71037 -122.21302 11 ft 4 kts 86°
2026-05-07 12:09 37.71038 -122.21330 11 ft 2 kts 110°
2026-05-07 12:10 37.71045 -122.21353 10 ft 0 kts 110°
2026-05-07 12:12 37.71042 -122.21350 10 ft 1 kts 138°
2026-05-07 12:12 37.71026 -122.21360 9 ft 4 kts 211°
2026-05-07 12:12 37.70999 -122.21385 8 ft 5 kts 217°
2026-05-07 12:13 37.70965 -122.21419 10 ft 9 kts 218°
2026-05-07 12:13 37.70900 -122.21481 9 ft 14 kts 216°
2026-05-07 12:13 37.70866 -122.21580 9 ft 12 kts 255°
2026-05-07 12:13 37.70807 -122.21661 8 ft 13 kts 220°
2026-05-07 12:14 37.70730 -122.21742 10 ft 16 kts 220°
2026-05-07 12:14 37.70659 -122.21787 8 ft 10 kts 169°
2026-05-07 12:14 37.70602 -122.21732 9 ft 12 kts 130°
2026-05-07 12:14 37.70541 -122.21642 8 ft 15 kts 131°
2026-05-07 12:15 37.70472 -122.21536 8 ft 16 kts 129°
2026-05-07 12:15 37.70400 -122.21429 8 ft 16 kts 137°
2026-05-07 12:15 37.70304 -122.21373 10 ft 15 kts 159°
2026-05-07 12:15 37.70215 -122.21369 8 ft 12 kts 214°
2026-05-07 12:16 37.70166 -122.21430 8 ft 7 kts 258°
2026-05-07 12:16 37.70189 -122.21485 8 ft 8 kts 310°
2026-05-07 12:16 37.70294 -122.21642 7 ft 54 kts 310°
2026-05-07 12:16 37.70680 -122.22223 8 ft 117 kts 310°
2026-05-07 12:17 37.71319 -122.23178 50 ft 162 kts 310°
2026-05-07 12:17 37.72056 -122.24266 692 ft 163 kts 307°
2026-05-07 12:17 37.72689 -122.25466 1378 ft 167 kts 297°
2026-05-07 12:17 37.73310 -122.26762 1963 ft 174 kts 300°
2026-05-07 12:18 37.73959 -122.28069 2658 ft 178 kts 301°
2026-05-07 12:18 37.74460 -122.29615 2924 ft 207 kts 270°
2026-05-07 12:18 37.73984 -122.31388 3131 ft 228 kts 233°
2026-05-07 12:18 37.72950 -122.32980 3566 ft 240 kts 230°
2026-05-07 12:19 37.71866 -122.34612 4135 ft 245 kts 231°
2026-05-07 12:19 37.70739 -122.36331 4484 ft 265 kts 231°
2026-05-07 12:19 37.69551 -122.38164 5147 ft 272 kts 232°
2026-05-07 12:19 37.68373 -122.40005 6074 ft 267 kts 233°
2026-05-07 12:20 37.67207 -122.41843 6844 ft 271 kts 232°
2026-05-07 12:20 37.66025 -122.43725 7537 ft 274 kts 232°
2026-05-07 12:20 37.64841 -122.45621 8299 ft 276 kts 233°
2026-05-07 12:20 37.63640 -122.47554 8948 ft 283 kts 232°
2026-05-07 12:21 37.62427 -122.49510 9729 ft 285 kts 233°
2026-05-07 12:21 37.61193 -122.51502 10344 ft 293 kts 233°
2026-05-07 12:21 37.59894 -122.53604 10507 ft 316 kts 233°
2026-05-07 12:21 37.58500 -122.55862 10688 ft 336 kts 232°
2026-05-07 12:22 37.57032 -122.58239 11037 ft 349 kts 232°
2026-05-07 12:22 37.55524 -122.60679 11611 ft 354 kts 232°
2026-05-07 12:22 37.54006 -122.63133 12291 ft 357 kts 232°
2026-05-07 12:22 37.52474 -122.65608 12955 ft 360 kts 232°
2026-05-07 12:23 37.50947 -122.68076 13564 ft 365 kts 232°
2026-05-07 12:23 37.49376 -122.70612 14169 ft 369 kts 232°
2026-05-07 12:23 37.47790 -122.73172 14811 ft 371 kts 232°
2026-05-07 12:23 37.46195 -122.75745 15452 ft 375 kts 232°
2026-05-07 12:24 37.44587 -122.78335 16118 ft 377 kts 232°
2026-05-07 12:24 37.42965 -122.80947 16746 ft 380 kts 232°
2026-05-07 12:24 37.41329 -122.83581 17383 ft 384 kts 232°
2026-05-07 12:24 37.40214 -122.85373 17782 ft 387 kts 232°
2026-05-07 12:25 37.38008 -122.88917 18608 ft 390 kts 232°
2026-05-07 12:25 37.36869 -122.90735 18952 ft 393 kts 232°
2026-05-07 12:25 37.35172 -122.93442 19477 ft 396 kts 233°
2026-05-07 12:25 37.33454 -122.96182 19959 ft 401 kts 232°
2026-05-07 12:26 37.31721 -122.98947 20478 ft 405 kts 234°